• Em Portugal
  • Lista de países
  • Para 7 dias
  • Temperatura da água
  • Mapas de satélite
  • Mapa do tempo
  • Widgets de tempo
  • user-avatar
    Iniciar Sessão

    Previsão horária em Monte Carlo

    Hoje, 23 Junho, Sábado

    Tempo Temperatura Precipitação Vento Pressão Humidade
    00:00 +23°C° 0 mm 2 m/s 748 mmHg 84%
    01:00 +22°C° 0 mm 3 m/s 748 mmHg 83%
    02:00 +22°C° 0 mm 4 m/s 748 mmHg 83%
    03:00 +21°C° 0 mm 4 m/s 748 mmHg 82%
    04:00 +22°C° 0 mm 5 m/s 749 mmHg 81%
    05:00 +22°C° 0 mm 6 m/s 749 mmHg 79%
    06:00 +22°C° 0 mm 7 m/s 749 mmHg 78%
    07:00 +24°C° 0 mm 7 m/s 750 mmHg 70%
    08:00 +26°C° 0 mm 7 m/s 750 mmHg 63%
    09:00 +27°C° 0 mm 7 m/s 750 mmHg 55%
    10:00 +28°C° 0,1 mm 7 m/s 750 mmHg 54%
    11:00 +28°C° 0,1 mm 7 m/s 750 mmHg 54%
    12:00 +28°C° 0,1 mm 7 m/s 750 mmHg 53%
    13:00 +28°C° 0,1 mm 6 m/s 750 mmHg 54%
    14:00 +28°C° 0,1 mm 5 m/s 750 mmHg 54%
    15:00 +27°C° 0,1 mm 5 m/s 749 mmHg 55%
    16:00 +27°C° 0 mm 4 m/s 749 mmHg 58%
    17:00 +26°C° 0 mm 3 m/s 749 mmHg 61%
    18:00 +25°C° 0 mm 2 m/s 749 mmHg 65%
    19:00 +24°C° 0 mm 2 m/s 749 mmHg 70%
    20:00 +23°C° 0 mm 1 m/s 749 mmHg 75%
    21:00 +21°C° 0 mm 1 m/s 750 mmHg 80%
    22:00 +21°C° 0 mm 1 m/s 750 mmHg 80%
    23:00 +20°C° 0 mm 2 m/s 750 mmHg 80%

    Amanhã, 24 Junho, Domingo

    Tempo Temperatura Precipitação Vento Pressão Humidade
    00:00 +20°C° 0 mm 2 m/s 750 mmHg 80%
    01:00 +20°C° 0 mm 2 m/s 749 mmHg 80%
    02:00 +20°C° 0 mm 2 m/s 749 mmHg 80%
    03:00 +20°C° 0 mm 3 m/s 749 mmHg 80%
    04:00 +21°C° 0 mm 3 m/s 749 mmHg 78%
    05:00 +21°C° 0 mm 3 m/s 749 mmHg 76%
    06:00 +22°C° 0 mm 3 m/s 749 mmHg 74%
    07:00 +23°C° 0,3 mm 4 m/s 749 mmHg 69%
    08:00 +25°C° 0,3 mm 4 m/s 749 mmHg 65%
    09:00 +25°C° 0,3 mm 4 m/s 749 mmHg 60%
    10:00 +26°C° 0,2 mm 4 m/s 749 mmHg 61%
    11:00 +26°C° 0,2 mm 4 m/s 749 mmHg 61%
    12:00 +26°C° 0,2 mm 4 m/s 749 mmHg 62%
    13:00 +25°C° 0,4 mm 4 m/s 748 mmHg 65%
    14:00 +25°C° 0,4 mm 3 m/s 748 mmHg 68%
    15:00 +24°C° 0,4 mm 3 m/s 748 mmHg 71%
    16:00 +24°C° 0,3 mm 3 m/s 748 mmHg 74%
    17:00 +22°C° 0,3 mm 3 m/s 747 mmHg 76%
    18:00 +22°C° 0,3 mm 3 m/s 747 mmHg 79%
    19:00 +21°C° 0,2 mm 3 m/s 748 mmHg 81%
    20:00 +20°C° 0,2 mm 2 m/s 748 mmHg 84%
    21:00 +19°C° 0,2 mm 2 m/s 748 mmHg 86%
    22:00 +18°C° 0 mm 2 m/s 748 mmHg 85%
    23:00 +18°C° 0 mm 2 m/s 748 mmHg 84%

    Depois de amanhã, 25 Junho, Segunda-feira

    Tempo Temperatura Precipitação Vento Pressão Humidade
    00:00 +18°C° 0 mm 2 m/s 748 mmHg 84%
    01:00 +18°C° 0 mm 2 m/s 748 mmHg 82%
    02:00 +18°C° 0 mm 2 m/s 748 mmHg 81%
    03:00 +18°C° 0 mm 2 m/s 748 mmHg 79%
    04:00 +19°C° 0 mm 2 m/s 748 mmHg 75%
    05:00 +20°C° 0 mm 2 m/s 748 mmHg 71%
    06:00 +23°C° 0 mm 2 m/s 748 mmHg 66%
    07:00 +25°C° 0 mm 2 m/s 748 mmHg 59%
    08:00 +27°C° 0 mm 2 m/s 748 mmHg 52%
    09:00 +28°C° 0 mm 2 m/s 749 mmHg 45%
    10:00 +28°C° 0 mm 3 m/s 749 mmHg 47%
    11:00 +28°C° 0 mm 3 m/s 749 mmHg 48%
    12:00 +28°C° 0 mm 3 m/s 749 mmHg 50%
    13:00 +28°C° 0 mm 3 m/s 749 mmHg 53%
    14:00 +28°C° 0 mm 2 m/s 749 mmHg 55%
    15:00 +27°C° 0 mm 2 m/s 749 mmHg 58%
    16:00 +27°C° 0 mm 2 m/s 749 mmHg 61%
    17:00 +26°C° 0 mm 2 m/s 749 mmHg 65%
    18:00 +26°C° 0 mm 1 m/s 749 mmHg 68%
    19:00 +24°C° 0 mm 1 m/s 749 mmHg 72%
    20:00 +23°C° 0 mm 1 m/s 749 mmHg 75%
    21:00 +22°C° 0 mm 1 m/s 750 mmHg 79%
    22:00 +20°C° 0 mm 2 m/s 750 mmHg 79%
    23:00 +20°C° 0 mm 2 m/s 750 mmHg 78%

    26 Junho, Terça-feira

    Tempo Temperatura Precipitação Vento Pressão Humidade
    00:00 +20°C° 0 mm 2 m/s 750 mmHg 77%
    01:00 +20°C° 0 mm 3 m/s 750 mmHg 75%
    02:00 +20°C° 0 mm 3 m/s 750 mmHg 73%
    03:00 +20°C° 0 mm 3 m/s 750 mmHg 71%
    04:00 +21°C° 0 mm 3 m/s 750 mmHg 68%
    05:00 +22°C° 0 mm 3 m/s 750 mmHg 65%
    06:00 +24°C° 0 mm 3 m/s 750 mmHg 62%
    07:00 +25°C° 0 mm 3 m/s 750 mmHg 59%
    08:00 +26°C° 0 mm 4 m/s 750 mmHg 56%
    09:00 +28°C° 0 mm 4 m/s 750 mmHg 52%
    10:00 +28°C° 0 mm 4 m/s 750 mmHg 54%
    11:00 +28°C° 0 mm 4 m/s 750 mmHg 55%
    12:00 +28°C° 0 mm 4 m/s 750 mmHg 56%
    13:00 +28°C° 0 mm 3 m/s 750 mmHg 59%
    14:00 +27°C° 0 mm 3 m/s 750 mmHg 62%
    15:00 +27°C° 0 mm 3 m/s 750 mmHg 65%
    16:00 +26°C° 0 mm 2 m/s 750 mmHg 68%
    17:00 +26°C° 0 mm 2 m/s 750 mmHg 70%
    18:00 +25°C° 0 mm 1 m/s 750 mmHg 73%
    19:00 +24°C° 0 mm 1 m/s 750 mmHg 76%
    20:00 +23°C° 0 mm 1 m/s 751 mmHg 79%
    21:00 +21°C° 0 mm 2 m/s 751 mmHg 82%
    22:00 +21°C° 0 mm 2 m/s 751 mmHg 82%
    23:00 +21°C° 0 mm 2 m/s 751 mmHg 82%

    27 Junho, Quarta-feira

    Tempo Temperatura Precipitação Vento Pressão Humidade
    00:00 +21°C° 0 mm 2 m/s 751 mmHg 82%
    01:00 +20°C° 0 mm 2 m/s 751 mmHg 81%
    02:00 +20°C° 0 mm 3 m/s 751 mmHg 81%
    03:00 +20°C° 0 mm 3 m/s 751 mmHg 80%
    04:00 +21°C° 0 mm 3 m/s 751 mmHg 76%
    05:00 +23°C° 0 mm 2 m/s 751 mmHg 71%
    06:00 +25°C° 0 mm 2 m/s 751 mmHg 66%
    07:00 +27°C° 0 mm 2 m/s 751 mmHg 60%
    08:00 +28°C° 0 mm 2 m/s 751 mmHg 53%
    09:00 +30°C° 0 mm 2 m/s 751 mmHg 47%
    10:00 +30°C° 0 mm 2 m/s 751 mmHg 48%
    11:00 +30°C° 0 mm 3 m/s 750 mmHg 49%
    12:00 +30°C° 0 mm 3 m/s 750 mmHg 51%
    13:00 +30°C° 0 mm 2 m/s 750 mmHg 52%
    14:00 +30°C° 0 mm 2 m/s 750 mmHg 52%
    15:00 +30°C° 0 mm 2 m/s 749 mmHg 53%
    16:00 +29°C° 0 mm 2 m/s 749 mmHg 56%
    17:00 +29°C° 0 mm 2 m/s 749 mmHg 60%
    18:00 +28°C° 0 mm 2 m/s 749 mmHg 64%
    19:00 +26°C° 0 mm 2 m/s 749 mmHg 68%
    20:00 +25°C° 0 mm 2 m/s 749 mmHg 73%
    21:00 +23°C° 0 mm 2 m/s 750 mmHg 78%
    22:00 +23°C° 0 mm 2 m/s 750 mmHg 76%
    23:00 +23°C° 0 mm 2 m/s 750 mmHg 73%

    28 Junho, Quinta-feira

    Tempo Temperatura Precipitação Vento Pressão Humidade
    00:00 +21°C° 0 mm 2 m/s 749 mmHg 71%
    01:00 +21°C° 0 mm 2 m/s 749 mmHg 70%
    02:00 +21°C° 0 mm 2 m/s 749 mmHg 68%
    03:00 +21°C° 0 mm 2 m/s 749 mmHg 67%
    04:00 +23°C° 0 mm 2 m/s 749 mmHg 65%
    05:00 +24°C° 0 mm 2 m/s 749 mmHg 62%
    06:00 +26°C° 0 mm 2 m/s 748 mmHg 60%
    07:00 +27°C° 0 mm 2 m/s 748 mmHg 57%
    08:00 +29°C° 0 mm 2 m/s 748 mmHg 55%
    09:00 +30°C° 0 mm 2 m/s 748 mmHg 52%
    10:00 +30°C° 0,1 mm 2 m/s 747 mmHg 54%
    11:00 +30°C° 0,1 mm 2 m/s 747 mmHg 56%
    12:00 +30°C° 0,1 mm 3 m/s 747 mmHg 58%
    13:00 +30°C° 0,4 mm 3 m/s 747 mmHg 56%
    14:00 +32°C° 0,4 mm 4 m/s 746 mmHg 55%
    15:00 +32°C° 0,4 mm 4 m/s 746 mmHg 53%
    16:00 +30°C° 0,3 mm 4 m/s 746 mmHg 55%
    17:00 +29°C° 0,3 mm 4 m/s 746 mmHg 58%
    18:00 +28°C° 0,3 mm 4 m/s 746 mmHg 61%
    19:00 +26°C° 0 mm 4 m/s 746 mmHg 65%
    20:00 +25°C° 0 mm 4 m/s 746 mmHg 69%
    21:00 +22°C° 0 mm 4 m/s 746 mmHg 73%
    22:00 +22°C° 0,1 mm 3 m/s 746 mmHg 73%
    23:00 +22°C° 0,1 mm 3 m/s 746 mmHg 73%
    Mostrar mais